EW7307 Weather Reports


time (UTC)temp
C
wind
direction
speed
KPH
gust
KPH
rain 1hr
cm
rain 24hr
cm
rain mn
cm
humidity
%
barometer
mb
20260504130747 19 76 12.9 22.5 0.00 0.00 0.00 77 1009.8
20260504130702 19 54 12.9 22.5 0.00 0.00 0.00 76 1009.9
20260504130457 19 98 12.9 22.5 0.00 0.00 0.00 76 1009.9
20260504130357 19 59 12.9 22.5 0.00 0.00 0.00 76 1010.0
20260504130324 18 113 6.4 22.5 0.00 0.00 0.00 78 1010.3
20260504130257 18 92 12.9 22.5 0.00 0.00 0.00 76 1009.9
20260504130219 18 87 14.5 22.5 0.00 0.00 0.00 75 1010.3
20260504130157 18 102 11.3 20.9 0.00 0.00 0.00 76 1010.0
20260504120310 18 81 8.0 16.1 0.00 0.00 0.00 78 1010.6
20260504120230 18 71 6.4 16.1 0.00 0.00 0.00 80 1010.7
20260504110641 18 333 4.8 11.3 0.00 0.00 0.00 79 1011.3
20260504110630 16 286 3.2 6.4 0.00 0.00 0.00 83 1012.0
20260504110544 18 337 3.2 9.7 0.00 0.00 0.00 78 1011.3
20260504110501 17 9 3.2 9.7 0.00 0.00 0.00 78 1011.3
20260504110417 17 13 3.2 9.7 0.00 0.00 0.00 77 1011.5
20260504110336 17 51 4.8 9.7 0.00 0.00 0.00 78 1011.6
20260504110254 17 325 4.8 9.7 0.00 0.00 0.00 79 1011.5
20260504100604 16 44 3.2 9.7 0.00 0.00 0.00 86 1012.0
20260504100508 16 111 3.2 9.7 0.00 0.00 0.00 86 1012.1
20260504100317 16 71 3.2 9.7 0.00 0.00 0.00 86 1012.1
20260504100238 16 67 3.2 4.8 0.00 0.00 0.00 87 1012.3
20260504100211 16 9 3.2 9.7 0.00 0.00 0.00 85 1012.1
20260504100147 16 190 3.2 4.8 0.00 0.00 0.00 87 1012.3
20260504100115 16 34 6.4 9.7 0.00 0.00 0.00 86 1012.1
20260504090137 15 76 1.6 6.4 0.00 0.00 0.00 87 1012.2
20260504081956 15 123 1.6 4.8 0.00 0.00 0.00 89 1012.4
20260504081939 14 313 1.6 4.8 0.00 0.00 0.00 93 1012.4
20260504081854 15 111 1.6 4.8 0.00 0.00 0.00 89 1012.4
20260504081757 15 44 1.6 4.8 0.00 0.00 0.00 89 1012.4
20260504081747 14 178 1.6 4.8 0.00 0.00 0.00 93 1012.4
20260504081653 15 108 1.6 4.8 0.00 0.00 0.00 89 1012.4
20260504081558 15 93 1.6 4.8 0.00 0.00 0.00 89 1012.4
20260504081516 15 83 3.2 4.8 0.00 0.00 0.00 90 1012.4
20260504081434 15 146 3.2 4.8 0.00 0.00 0.00 90 1012.4
20260504081248 15 149 1.6 4.8 0.00 0.00 0.00 90 1012.4
20260504081200 15 161 1.6 4.8 0.00 0.00 0.00 90 1012.4
20260504081118 15 111 3.2 4.8 0.00 0.00 0.00 90 1012.4
20260504081031 15 142 3.2 4.8 0.00 0.00 0.00 90 1012.4
20260504080950 15 129 1.6 4.8 0.00 0.00 0.00 90 1012.4
20260504080726 15 93 1.6 4.8 0.00 0.00 0.00 91 1012.4
20260504080532 13 265 1.6 6.4 0.00 0.00 0.00 93 1012.4
20260504080438 15 111 3.2 4.8 0.00 0.00 0.00 91 1012.4
20260504080341 15 131 3.2 4.8 0.00 0.00 0.00 91 1012.4
20260504080259 15 110 3.2 4.8 0.00 0.00 0.00 91 1012.4
20260504080218 15 59 3.2 4.8 0.00 0.00 0.00 91 1012.4
20260504080135 15 80 3.2 4.8 0.00 0.00 0.00 91 1012.3
20260504070411 13 301 3.2 6.4 0.00 0.00 0.00 93 1012.4
20260504070332 13 234 1.6 6.4 0.00 0.00 0.00 93 1012.4
20260504070104 13 265 3.2 6.4 0.00 0.00 0.00 93 1012.4
20260504060204 11 229 1.6 4.8 0.00 0.00 0.00 92 1011.9
20260504050703 11 232 0.0 3.2 0.00 0.00 0.00 91 1011.5
20260504050624 11 232 0.0 3.2 0.00 0.00 0.00 91 1011.3
20260504050408 11 221 1.6 4.8 0.00 0.00 0.00 91 1011.5
20260504050330 11 221 1.6 4.8 0.00 0.00 0.00 91 1011.3
20260504050247 11 178 1.6 4.8 0.00 0.00 0.00 91 1011.3
20260504050014 11 212 1.6 4.8 0.00 0.00 0.00 91 1011.3
20260504045727 11 215 3.2 4.8 0.00 0.00 0.00 91 1011.3
20260504045624 11 208 3.2 4.8 0.00 0.00 0.00 91 1011.3
20260504045558 11 221 1.6 3.2 0.00 0.00 0.00 91 1011.5
20260504045523 11 208 3.2 4.8 0.00 0.00 0.00 91 1011.3
20260504045341 11 229 1.6 3.2 0.00 0.00 0.00 91 1011.3
20260504045301 11 221 1.6 3.2 0.00 0.00 0.00 91 1011.3
20260504045018 11 235 0.0 3.2 0.00 0.00 0.00 91 1011.3
20260504044915 11 178 1.6 3.2 0.00 0.00 0.00 91 1011.3
20260504044814 11 205 1.6 3.2 0.00 0.00 0.00 91 1011.3
20260504044716 11 232 1.6 3.2 0.00 0.00 0.00 91 1011.3
20260504044613 11 221 0.0 3.2 0.00 0.00 0.00 91 1011.3
20260504044524 11 232 0.0 3.2 0.00 0.00 0.00 91 1011.5
20260504044410 11 137 1.6 3.2 0.00 0.00 0.00 91 1011.3
20260504044345 11 93 0.0 3.2 0.00 0.00 0.00 91 1011.3
20260504044308 11 137 1.6 3.2 0.00 0.00 0.00 91 1011.5
20260504044210 11 126 1.6 3.2 0.00 0.00 0.00 91 1011.5
20260504044128 11 137 1.6 3.2 0.00 0.00 0.00 91 1011.5
20260504044046 11 129 1.6 3.2 0.00 0.00 0.00 91 1011.5
20260504044004 11 131 1.6 3.2 0.00 0.00 0.00 91 1011.5
20260504043802 11 178 1.6 3.2 0.00 0.00 0.00 91 1011.6
20260504043702 11 137 1.6 3.2 0.00 0.00 0.00 91 1011.5
20260504043601 11 190 1.6 3.2 0.00 0.00 0.00 91 1011.6
20260504043512 11 205 1.6 3.2 0.00 0.00 0.00 91 1011.6
20260504043432 11 205 1.6 3.2 0.00 0.00 0.00 91 1011.5
20260504043348 11 162 1.6 3.2 0.00 0.00 0.00 91 1011.5
20260504043152 11 243 1.6 3.2 0.00 0.00 0.00 91 1011.5
20260504043113 11 212 0.0 3.2 0.00 0.00 0.00 91 1011.3
20260504043032 11 232 0.0 3.2 0.00 0.00 0.00 91 1011.3
20260504042744 11 265 0.0 3.2 0.00 0.00 0.00 91 1011.3
20260504042733 11 238 0.0 3.2 0.00 0.00 0.00 91 1011.2
20260504042652 11 265 1.6 3.2 0.00 0.00 0.00 91 1011.3
20260504042522 11 196 1.6 3.2 0.00 0.00 0.00 91 1011.2
20260504042316 11 212 1.6 3.2 0.00 0.00 0.00 91 1011.1
20260504042234 11 51 1.6 3.2 0.00 0.00 0.00 91 1011.2
20260504042132 11 221 1.6 3.2 0.00 0.00 0.00 91 1011.2
20260504042111 11 205 0.0 1.6 0.00 0.00 0.00 91 1011.0
20260504042053 11 93 0.0 3.2 0.00 0.00 0.00 91 1011.0
20260504042032 11 221 1.6 3.2 0.00 0.00 0.00 91 1011.2
20260504041929 11 178 1.6 3.2 0.00 0.00 0.00 91 1011.2
20260504041832 11 196 1.6 3.2 0.00 0.00 0.00 91 1011.2
20260504041820 11 93 0.0 3.2 0.00 0.00 0.00 91 1011.1
20260504041742 11 190 1.6 3.2 0.00 0.00 0.00 91 1011.2
20260504041649 11 205 1.6 3.2 0.00 0.00 0.00 91 1011.3
20260504041604 11 221 1.6 3.2 0.00 0.00 0.00 91 1011.2
20260504041321 11 215 1.6 3.2 0.00 0.00 0.00 91 1011.2
20260504041242 11 221 0.0 3.2 0.00 0.00 0.00 91 1011.2
20260504041202 11 221 0.0 3.2 0.00 0.00 0.00 91 1011.2
20260504041126 11 238 0.0 3.2 0.00 0.00 0.00 91 1011.1
20260504040848 11 265 0.0 3.2 0.00 0.00 0.00 91 1011.2
20260504040636 11 212 1.6 3.2 0.00 0.00 0.00 91 1011.1
20260504040553 11 212 1.6 3.2 0.00 0.00 0.00 91 1011.1
20260504040509 11 205 1.6 3.2 0.00 0.00 0.00 91 1011.1
20260504040427 11 178 1.6 3.2 0.00 0.00 0.00 91 1011.0
20260504035949 11 275 1.6 4.8 0.00 0.00 0.00 91 1011.2
20260504035932 11 93 0.0 3.2 0.00 0.00 0.00 91 1011.0
20260504035833 11 93 0.0 3.2 0.00 0.00 0.00 91 1011.0
20260504035728 11 93 0.0 3.2 0.00 0.00 0.00 91 1011.0
20260504035636 11 93 1.6 3.2 0.00 0.00 0.00 91 1011.0
20260504035555 11 93 0.0 3.2 0.00 0.00 0.00 91 1011.1
20260504035317 11 111 0.0 3.2 0.00 0.00 0.00 91 1011.1
20260504035215 11 221 0.0 3.2 0.00 0.00 0.00 91 1011.2
20260504035112 11 205 0.0 4.8 0.00 0.00 0.00 91 1011.2
20260504035015 11 205 0.0 4.8 0.00 0.00 0.00 91 1011.1
20260504034926 11 238 0.0 4.8 0.00 0.00 0.00 91 1011.1
20260504034845 11 275 1.6 4.8 0.00 0.00 0.00 91 1011.2
20260504034653 11 137 1.6 3.2 0.00 0.00 0.00 90 1010.8
20260504034606 11 265 1.6 4.8 0.00 0.00 0.00 91 1011.2
20260504034526 11 234 1.6 4.8 0.00 0.00 0.00 91 1011.1
20260504034441 11 221 3.2 4.8 0.00 0.00 0.00 91 1011.1
20260504034355 11 212 3.2 4.8 0.00 0.00 0.00 91 1011.1
20260504034200 11 205 3.2 4.8 0.00 0.00 0.00 91 1011.0
20260504034136 11 123 1.6 3.2 0.00 0.00 0.00 90 1010.9
20260504034100 11 188 3.2 4.8 0.00 0.00 0.00 90 1011.0
20260504033958 11 221 1.6 4.8 0.00 0.00 0.00 90 1011.0
20260504033857 11 200 1.6 3.2 0.00 0.00 0.00 90 1011.0
20260504033757 11 196 1.6 3.2 0.00 0.00 0.00 90 1011.0
20260504033654 11 178 1.6 3.2 0.00 0.00 0.00 90 1010.9
20260504033554 11 190 1.6 3.2 0.00 0.00 0.00 90 1010.9
20260504033453 11 200 1.6 3.2 0.00 0.00 0.00 90 1011.0
20260504033436 11 232 0.0 3.2 0.00 0.00 0.00 90 1011.0
20260504033412 11 265 1.6 3.2 0.00 0.00 0.00 90 1010.9
20260504033351 11 212 1.6 3.2 0.00 0.00 0.00 90 1011.0
20260504033251 11 178 1.6 3.2 0.00 0.00 0.00 90 1010.9
20260504033150 11 196 0.0 3.2 0.00 0.00 0.00 90 1010.9
20260504033048 11 205 0.0 3.2 0.00 0.00 0.00 90 1010.9
20260504033028 11 282 1.6 3.2 0.00 0.00 0.00 90 1010.8
20260504032954 11 93 0.0 3.2 0.00 0.00 0.00 90 1010.9
20260504032915 11 93 0.0 3.2 0.00 0.00 0.00 90 1010.8
20260504032840 11 119 0.0 3.2 0.00 0.00 0.00 90 1010.8
20260504032807 11 119 0.0 3.2 0.00 0.00 0.00 90 1010.9
20260504032548 11 93 1.6 3.2 0.00 0.00 0.00 90 1010.9
20260504032320 11 137 1.6 3.2 0.00 0.00 0.00 90 1010.9
20260504032039 11 129 1.6 3.2 0.00 0.00 0.00 90 1010.9
20260504031938 11 119 1.6 3.2 0.00 0.00 0.00 90 1010.9
20260504031836 11 93 1.6 3.2 0.00 0.00 0.00 90 1010.9
20260504031737 11 93 0.0 3.2 0.00 0.00 0.00 90 1010.9
20260504031635 11 67 0.0 3.2 0.00 0.00 0.00 90 1010.9
20260504031534 11 93 1.6 3.2 0.00 0.00 0.00 90 1011.0
20260504031436 11 319 0.0 3.2 0.00 0.00 0.00 90 1011.0
20260504031334 11 22 0.0 3.2 0.00 0.00 0.00 90 1011.1
20260504031232 11 221 0.0 3.2 0.00 0.00 0.00 90 1011.0
20260504031141 11 221 0.0 3.2 0.00 0.00 0.00 90 1011.0
20260504031102 11 205 0.0 3.2 0.00 0.00 0.00 90 1011.0
20260504031024 11 212 0.0 3.2 0.00 0.00 0.00 90 1011.0
20260504030941 11 265 0.0 3.2 0.00 0.00 0.00 90 1011.1
20260504030859 11 221 1.6 3.2 0.00 0.00 0.00 90 1011.1
20260504030825 11 212 1.6 3.2 0.00 0.00 0.00 90 1011.0
20260504030746 11 247 0.0 3.2 0.00 0.00 0.00 90 1011.0
20260504030219 11 265 1.6 3.2 0.00 0.00 0.00 90 1010.8
20260504030118 11 265 1.6 3.2 0.00 0.00 0.00 90 1010.8
20260504030017 11 325 0.0 3.2 0.00 0.00 0.00 90 1010.7
20260504025916 11 338 0.0 3.2 0.00 0.00 0.00 90 1010.8
20260504025815 11 265 0.0 3.2 0.00 0.00 0.00 90 1010.7
20260504025731 11 265 1.6 3.2 0.00 0.00 0.00 90 1010.8
20260504025652 11 298 1.6 3.2 0.00 0.00 0.00 90 1010.8
20260504025409 11 279 1.6 3.2 0.00 0.00 0.00 90 1010.9
20260504025321 11 212 1.6 3.2 0.00 0.00 0.00 90 1010.9
20260504025245 11 238 0.0 3.2 0.00 0.00 0.00 90 1011.0
20260504025203 11 221 1.6 3.2 0.00 0.00 0.00 90 1010.9
20260504025004 11 221 1.6 3.2 0.00 0.00 0.00 90 1010.9
20260504024904 11 309 3.2 3.2 0.00 0.00 0.00 90 1010.8
20260504024804 11 301 1.6 3.2 0.00 0.00 0.00 90 1010.8
20260504024700 11 329 1.6 3.2 0.00 0.00 0.00 90 1010.9
20260504024600 11 9 0.0 3.2 0.00 0.00 0.00 90 1010.9
20260504024459 11 265 1.6 3.2 0.00 0.00 0.00 90 1010.9
20260504024355 11 221 1.6 3.2 0.00 0.00 0.00 90 1010.9
20260504024257 11 221 1.6 3.2 0.00 0.00 0.00 90 1010.9
20260504024242 11 295 1.6 3.2 0.00 0.00 0.00 89 1011.2
20260504024158 11 209 1.6 3.2 0.00 0.00 0.00 90 1010.9
20260504024142 11 298 0.0 3.2 0.00 0.00 0.00 89 1011.1
20260504024121 11 265 0.0 3.2 0.00 0.00 0.00 89 1011.1
20260504024054 11 217 1.6 3.2 0.00 0.00 0.00 90 1010.9
20260504024025 11 178 1.6 3.2 0.00 0.00 0.00 89 1011.1
20260504023954 11 221 0.0 3.2 0.00 0.00 0.00 90 1010.8
20260504023848 11 193 0.0 1.6 0.00 0.00 0.00 90 1010.9
20260504023757 11 137 0.0 1.6 0.00 0.00 0.00 90 1010.9
20260504023720 11 178 0.0 3.2 0.00 0.00 0.00 90 1010.9
20260504023635 11 111 0.0 4.8 0.00 0.00 0.00 90 1010.9
20260504023441 11 111 0.0 4.8 0.00 0.00 0.00 90 1010.9
20260504023344 11 137 0.0 4.8 0.00 0.00 0.00 90 1010.9
20260504023333 11 137 3.2 4.8 0.00 0.00 0.00 89 1011.1
20260504023253 11 178 1.6 3.2 0.00 0.00 0.00 89 1011.2
20260504023240 11 221 0.0 4.8 0.00 0.00 0.00 90 1010.9
20260504023157 11 205 0.0 3.2 0.00 0.00 0.00 89 1011.3
20260504023140 11 178 1.6 4.8 0.00 0.00 0.00 90 1010.9
20260504023034 11 126 1.6 4.8 0.00 0.00 0.00 90 1010.9
20260504022932 11 126 0.0 4.8 0.00 0.00 0.00 90 1011.0
20260504022832 11 144 1.6 4.8 0.00 0.00 0.00 90 1011.0
20260504022747 11 146 1.6 4.8 0.00 0.00 0.00 90 1011.0
20260504022708 11 144 1.6 4.8 0.00 0.00 0.00 90 1011.0
20260504022429 11 205 1.6 4.8 0.00 0.00 0.00 90 1011.1
20260504022418 11 153 1.6 4.8 0.00 0.00 0.00 89 1011.3
20260504022324 11 153 1.6 4.8 0.00 0.00 0.00 90 1011.1
20260504022223 11 168 1.6 4.8 0.00 0.00 0.00 90 1011.2
20260504022120 11 196 1.6 4.8 0.00 0.00 0.00 90 1011.1
20260504022022 11 212 1.6 4.8 0.00 0.00 0.00 90 1011.1
20260504022009 12 123 1.6 4.8 0.00 0.00 0.00 89 1011.1
20260504021919 11 205 1.6 4.8 0.00 0.00 0.00 90 1011.1
20260504021819 11 205 1.6 4.8 0.00 0.00 0.00 90 1011.1
20260504021719 11 209 1.6 4.8 0.00 0.00 0.00 90 1011.2
20260504021617 11 205 3.2 4.8 0.00 0.00 0.00 90 1011.2
20260504021516 11 185 3.2 4.8 0.00 0.00 0.00 90 1011.2
20260504021451 12 193 1.6 4.8 0.00 0.00 0.00 88 1011.2
20260504021416 11 178 1.6 3.2 0.00 0.00 0.00 90 1011.2
20260504021317 11 193 1.6 3.2 0.00 0.00 0.00 90 1011.3
20260504021233 11 165 1.6 3.2 0.00 0.00 0.00 90 1011.2
20260504021153 11 178 1.6 3.2 0.00 0.00 0.00 89 1011.2
20260504020928 11 168 0.0 3.2 0.00 0.00 0.00 90 1011.2
20260504020851 11 161 0.0 1.6 0.00 0.00 0.00 89 1011.3
20260504020809 11 161 0.0 3.2 0.00 0.00 0.00 89 1011.2
20260504020602 11 161 0.0 3.2 0.00 0.00 0.00 89 1011.2
20260504020501 11 161 0.0 3.2 0.00 0.00 0.00 89 1011.2
20260504020421 12 305 3.2 4.8 0.00 0.00 0.00 87 1011.3
20260504020358 11 178 0.0 3.2 0.00 0.00 0.00 89 1011.2
20260504020259 11 9 0.0 3.2 0.00 0.00 0.00 89 1011.2
20260504020157 11 9 0.0 3.2 0.00 0.00 0.00 89 1011.3
20260504020104 11 9 0.0 3.2 0.00 0.00 0.00 89 1011.3
20260504015950 11 325 0.0 3.2 0.00 0.00 0.00 89 1011.3
20260504015926 12 221 1.6 3.2 0.00 0.00 0.00 87 1011.2
20260504015850 11 238 0.0 3.2 0.00 0.00 0.00 89 1011.3
20260504015748 11 221 1.6 3.2 0.00 0.00 0.00 89 1011.3
20260504015730 12 200 1.6 3.2 0.00 0.00 0.00 87 1011.2
20260504015647 11 178 1.6 3.2 0.00 0.00 0.00 89 1011.3
20260504015546 11 168 1.6 3.2 0.00 0.00 0.00 90 1011.3
20260504015446 11 178 1.6 3.2 0.00 0.00 0.00 90 1011.3
20260504015353 11 196 0.0 3.2 0.00 0.00 0.00 90 1011.3
20260504015308 11 247 0.0 3.2 0.00 0.00 0.00 90 1011.2
20260504015237 11 265 0.0 3.2 0.00 0.00 0.00 90 1011.3
20260504015157 11 247 1.6 3.2 0.00 0.00 0.00 89 1011.2
20260504015116 11 298 1.6 3.2 0.00 0.00 0.00 89 1011.1
20260504015036 11 291 3.2 3.2 0.00 0.00 0.00 89 1011.2
20260504014809 11 301 1.6 3.2 0.00 0.00 0.00 89 1011.0
20260504014407 11 221 0.0 3.2 0.00 0.00 0.00 89 1011.1
20260504014123 11 178 0.0 4.8 0.00 0.00 0.00 89 1011.1
20260504014054 12 265 0.0 3.2 0.00 0.00 0.00 86 1011.3
20260504014024 11 144 1.6 4.8 0.00 0.00 0.00 89 1011.1
20260504013947 11 178 1.6 4.8 0.00 0.00 0.00 89 1011.2
20260504013904 11 193 1.6 4.8 0.00 0.00 0.00 89 1011.2
20260504013636 11 168 1.6 4.8 0.00 0.00 0.00 89 1011.1
20260504013553 11 153 1.6 4.8 0.00 0.00 0.00 89 1011.1
20260504013515 11 142 1.6 4.8 0.00 0.00 0.00 89 1011.2
20260504013433 11 137 1.6 4.8 0.00 0.00 0.00 89 1011.1
20260504013212 11 178 1.6 4.8 0.00 0.00 0.00 89 1011.2
20260504012949 11 178 1.6 3.2 0.00 0.00 0.00 89 1011.3
20260504012708 11 221 0.0 3.2 0.00 0.00 0.00 89 1011.3
20260504012606 11 93 0.0 3.2 0.00 0.00 0.00 89 1011.2
20260504012500 11 93 0.0 3.2 0.00 0.00 0.00 89 1011.2
20260504012449 12 51 0.0 3.2 0.00 0.00 0.00 86 1011.3
20260504012359 11 93 0.0 3.2 0.00 0.00 0.00 89 1011.2
20260504012259 11 93 1.6 3.2 0.00 0.00 0.00 89 1011.1
20260504012155 11 126 1.6 3.2 0.00 0.00 0.00 89 1011.2
20260504012101 11 153 1.6 4.8 0.00 0.00 0.00 89 1011.1
20260504012044 12 205 0.0 1.6 0.00 0.00 0.00 85 1011.6
20260504011953 11 146 1.6 4.8 0.00 0.00 0.00 89 1011.1
20260504011912 11 137 1.6 4.8 0.00 0.00 0.00 89 1011.2
20260504011827 11 178 1.6 4.8 0.00 0.00 0.00 89 1011.2
20260504011548 11 168 1.6 4.8 0.00 0.00 0.00 89 1011.3
20260504011536 12 265 0.0 1.6 0.00 0.00 0.00 85 1011.6
20260504011513 12 265 0.0 1.6 0.00 0.00 0.00 85 1011.6
20260504011445 11 221 1.6 4.8 0.00 0.00 0.00 89 1011.3
20260504011337 11 282 1.6 4.8 0.00 0.00 0.00 89 1011.3
20260504011236 12 319 3.2 4.8 0.00 0.00 0.00 89 1011.3
20260504011211 13 238 1.6 3.2 0.00 0.00 0.00 85 1011.6
20260504011133 12 286 3.2 4.8 0.00 0.00 0.00 89 1011.3
20260504011042 12 287 3.2 4.8 0.00 0.00 0.00 89 1011.2
20260504011009 13 282 1.6 3.2 0.00 0.00 0.00 85 1011.7
20260504010931 12 282 1.6 4.8 0.00 0.00 0.00 89 1011.2
20260504010846 12 291 0.0 4.8 0.00 0.00 0.00 89 1011.2
20260504010802 12 205 1.6 4.8 0.00 0.00 0.00 89 1011.2
20260504010714 12 161 1.6 4.8 0.00 0.00 0.00 89 1011.1
20260504010451 12 123 1.6 4.8 0.00 0.00 0.00 89 1011.2
20260504010409 12 137 1.6 4.8 0.00 0.00 0.00 88 1011.1
20260504010215 12 161 1.6 4.8 0.00 0.00 0.00 88 1011.1
20260504010149 13 265 0.0 3.2 0.00 0.00 0.00 85 1011.7
20260504010121 12 137 1.6 3.2 0.00 0.00 0.00 88 1011.2
20260504010021 12 158 1.6 4.8 0.00 0.00 0.00 88 1011.2
20260504005914 12 221 0.0 4.8 0.00 0.00 0.00 88 1011.2
20260504005815 12 178 0.0 4.8 0.00 0.00 0.00 88 1011.2
20260504005707 12 178 0.0 4.8 0.00 0.00 0.00 88 1011.2
20260504005603 12 178 1.6 4.8 0.00 0.00 0.00 88 1011.2
20260504005528 13 221 0.0 1.6 0.00 0.00 0.00 84 1011.8
20260504005458 12 153 1.6 4.8 0.00 0.00 0.00 88 1011.2
20260504005446 13 221 0.0 1.6 0.00 0.00 0.00 84 1011.8
20260504005414 12 178 1.6 4.8 0.00 0.00 0.00 88 1011.3
20260504005333 12 190 1.6 4.8 0.00 0.00 0.00 88 1011.2
20260504005053 12 178 1.6 6.4 0.00 0.00 0.00 88 1011.2
20260504005013 12 153 1.6 6.4 0.00 0.00 0.00 88 1011.3
20260504004931 12 162 1.6 6.4 0.00 0.00 0.00 88 1011.3
20260504004644 12 205 1.6 6.4 0.00 0.00 0.00 87 1011.3
20260504004544 12 178 1.6 6.4 0.00 0.00 0.00 87 1011.3
20260504004442 12 238 1.6 6.4 0.00 0.00 0.00 87 1011.5
20260504004348 12 287 3.2 6.4 0.00 0.00 0.00 87 1011.5
20260504004301 12 279 3.2 6.4 0.00 0.00 0.00 87 1011.3
20260504004221 12 300 3.2 4.8 0.00 0.00 0.00 87 1011.3
20260504003938 12 303 1.6 3.2 0.00 0.00 0.00 87 1011.3
20260504003836 12 330 1.6 3.2 0.00 0.00 0.00 87 1011.3
20260504003805 14 291 1.6 3.2 0.00 0.00 0.00 83 1011.9
20260504003736 12 325 0.0 3.2 0.00 0.00 0.00 87 1011.2
20260504003635 12 309 0.0 3.2 0.00 0.00 0.00 87 1011.2
20260504003532 12 221 0.0 3.2 0.00 0.00 0.00 87 1011.2
20260504003431 12 205 1.6 3.2 0.00 0.00 0.00 87 1011.2
20260504003351 12 193 1.6 3.2 0.00 0.00 0.00 87 1011.1
20260504003306 12 205 1.6 3.2 0.00 0.00 0.00 87 1011.1
20260504003224 12 221 1.6 3.2 0.00 0.00 0.00 87 1011.1
20260504003142 12 178 1.6 3.2 0.00 0.00 0.00 87 1011.1
20260504003059 12 137 0.0 3.2 0.00 0.00 0.00 87 1011.1
20260504002716 12 193 3.2 3.2 0.00 0.00 0.00 87 1011.2
20260504002618 12 178 1.6 3.2 0.00 0.00 0.00 87 1011.2
20260504002521 12 170 1.6 3.2 0.00 0.00 0.00 87 1011.2
20260504002441 12 178 1.6 3.2 0.00 0.00 0.00 87 1011.3
20260504002200 12 178 1.6 3.2 0.00 0.00 0.00 87 1011.2
20260504002058 12 178 1.6 3.2 0.00 0.00 0.00 87 1011.3
20260504002028 14 178 1.6 3.2 0.00 0.00 0.00 82 1011.9
20260504001957 12 196 1.6 3.2 0.00 0.00 0.00 87 1011.2
20260504001858 12 212 1.6 3.2 0.00 0.00 0.00 86 1011.2
20260504001844 14 137 1.6 3.2 0.00 0.00 0.00 82 1011.8
20260504001754 12 205 1.6 3.2 0.00 0.00 0.00 86 1011.2
20260504001658 12 193 1.6 3.2 0.00 0.00 0.00 86 1011.2
20260504001644 15 93 3.2 3.2 0.00 0.00 0.00 82 1011.8
20260504001556 12 221 3.2 3.2 0.00 0.00 0.00 86 1011.2
20260504001448 12 221 3.2 3.2 0.00 0.00 0.00 86 1011.3
20260504001356 12 205 1.6 3.2 0.00 0.00 0.00 86 1011.3
20260504001313 12 171 1.6 3.2 0.00 0.00 0.00 86 1011.2
20260504001228 12 193 0.0 3.2 0.00 0.00 0.00 86 1011.3
20260504001147 12 282 0.0 3.2 0.00 0.00 0.00 86 1011.3
20260504000932 12 221 1.6 3.2 0.00 0.00 0.00 86 1011.3
20260504000723 12 212 1.6 3.2 0.00 0.00 0.00 86 1011.3
20260504000635 12 165 1.6 3.2 0.00 0.00 0.00 86 1011.5
20260504000553 12 137 0.0 1.6 0.00 0.00 0.00 86 1011.3
20260504000504 12 153 0.0 3.2 0.00 0.00 0.00 86 1011.3
20260504000317 12 212 0.0 3.2 0.00 0.00 0.00 86 1011.3
20260504000219 12 238 0.0 3.2 0.00 0.00 0.00 86 1011.3
20260504000157 15 341 1.6 4.8 0.00 0.00 0.00 82 1011.9
20260504000122 12 238 0.0 3.2 0.00 0.00 0.00 86 1011.3
20260504000023 12 137 0.0 3.2 0.00 0.00 0.00 86 1011.3
20260503235945 12 205 0.0 3.2 0.00 0.00 0.00 86 1011.5
20260503235709 12 119 1.6 3.2 0.00 0.00 0.00 85 1011.3
20260503235611 12 119 0.0 3.2 0.00 0.00 0.00 85 1011.3
20260503235511 12 119 0.0 3.2 0.00 0.00 0.00 85 1011.5
20260503235407 12 178 1.6 3.2 0.00 0.00 0.00 85 1011.5
20260503235311 12 178 1.6 3.2 0.00 0.00 0.00 85 1011.5
20260503235226 12 178 1.6 3.2 0.00 0.00 0.00 85 1011.5
20260503235144 12 221 1.6 3.2 0.00 0.00 0.00 85 1011.6
20260503235106 12 178 1.6 3.2 0.00 0.00 0.00 85 1011.6
20260503234828 12 221 0.0 1.6 0.00 0.00 0.00 85 1011.6
20260503234748 12 265 0.0 1.6 0.00 0.00 0.00 85 1011.5
20260503234708 12 265 0.0 1.6 0.00 0.00 0.00 85 1011.6
20260503234249 12 265 0.0 1.6 0.00 0.00 0.00 85 1011.6
20260503234232 15 301 1.6 6.4 0.00 0.00 0.00 81 1011.8
20260503234204 12 178 0.0 3.2 0.00 0.00 0.00 85 1011.6
20260503234132 12 178 0.0 3.2 0.00 0.00 0.00 85 1011.6
20260503234037 12 178 0.0 3.2 0.00 0.00 0.00 85 1011.5
20260503233956 12 178 0.0 3.2 0.00 0.00 0.00 85 1011.6
20260503233919 13 178 1.6 3.2 0.00 0.00 0.00 85 1011.6
20260503233839 13 212 0.0 3.2 0.00 0.00 0.00 85 1011.6
20260503233605 13 221 1.6 3.2 0.00 0.00 0.00 85 1011.8
20260503233522 13 265 1.6 3.2 0.00 0.00 0.00 85 1011.6
20260503233255 13 232 0.0 3.2 0.00 0.00 0.00 85 1011.7
20260503232828 13 265 0.0 3.2 0.00 0.00 0.00 85 1011.7
20260503232726 13 282 0.0 3.2 0.00 0.00 0.00 85 1011.7
20260503232618 13 282 0.0 3.2 0.00 0.00 0.00 85 1011.7
20260503232601 15 34 3.2 4.8 0.00 0.00 0.00 81 1011.6
20260503232525 13 282 1.6 3.2 0.00 0.00 0.00 85 1011.7
20260503232413 13 309 1.6 3.2 0.00 0.00 0.00 84 1011.7
20260503232313 13 309 1.6 3.2 0.00 0.00 0.00 84 1011.7
20260503232215 13 301 0.0 3.2 0.00 0.00 0.00 84 1011.7
20260503232127 15 67 1.6 4.8 0.00 0.00 0.00 80 1011.7
20260503232114 13 309 0.0 1.6 0.00 0.00 0.00 84 1011.7
20260503232013 13 9 0.0 1.6 0.00 0.00 0.00 84 1011.7
20260503231910 13 196 0.0 1.6 0.00 0.00 0.00 84 1011.8
20260503231809 13 196 0.0 1.6 0.00 0.00 0.00 84 1011.7
20260503231730 13 196 0.0 1.6 0.00 0.00 0.00 84 1011.7
20260503231653 13 196 0.0 1.6 0.00 0.00 0.00 84 1011.7
20260503231619 13 178 0.0 1.6 0.00 0.00 0.00 84 1011.7
20260503231223 15 67 3.2 4.8 0.00 0.00 0.00 81 1011.7
20260503231152 13 221 0.0 3.2 0.00 0.00 0.00 84 1011.8
20260503231048 13 325 0.0 3.2 0.00 0.00 0.00 84 1011.9
20260503230946 13 309 1.6 3.2 0.00 0.00 0.00 84 1011.8
20260503230846 13 334 0.0 3.2 0.00 0.00 0.00 84 1011.9
20260503230744 13 9 0.0 3.2 0.00 0.00 0.00 83 1011.8
20260503230702 13 153 0.0 3.2 0.00 0.00 0.00 83 1011.9
20260503230628 13 153 0.0 3.2 0.00 0.00 0.00 83 1011.8
20260503230441 13 153 1.6 3.2 0.00 0.00 0.00 83 1011.8
20260503230341 13 137 1.6 3.2 0.00 0.00 0.00 83 1011.7
20260503230232 13 126 0.0 1.6 0.00 0.00 0.00 83 1011.7
20260503230137 13 137 0.0 1.6 0.00 0.00 0.00 83 1011.7
20260503230058 13 119 0.0 1.6 0.00 0.00 0.00 83 1011.7
20260503230003 13 161 0.0 1.6 0.00 0.00 0.00 83 1011.8
20260503225927 13 309 0.0 1.6 0.00 0.00 0.00 83 1011.8
20260503225728 13 309 1.6 1.6 0.00 0.00 0.00 83 1011.9
20260503225653 15 76 6.4 14.5 0.00 0.00 0.00 80 1011.6
20260503225622 13 309 1.6 1.6 0.00 0.00 0.00 83 1011.8
20260503225542 15 82 6.4 19.3 0.00 0.00 0.00 80 1011.5
20260503225526 13 319 0.0 3.2 0.00 0.00 0.00 82 1011.9
20260503225422 13 319 0.0 3.2 0.00 0.00 0.00 83 1011.8
20260503225324 13 309 0.0 3.2 0.00 0.00 0.00 83 1011.9
20260503225249 13 309 0.0 3.2 0.00 0.00 0.00 83 1011.8
20260503225055 15 85 11.3 19.3 0.00 0.00 0.00 80 1011.5
20260503225007 14 291 1.6 3.2 0.00 0.00 0.00 83 1011.9
20260503224901 14 309 1.6 3.2 0.00 0.00 0.00 82 1011.8
20260503224843 15 111 6.4 19.3 0.00 0.00 0.00 80 1011.3
20260503224811 14 325 1.6 3.2 0.00 0.00 0.00 82 1011.8
20260503224728 14 325 1.6 3.2 0.00 0.00 0.00 82 1011.8
20260503224644 14 9 1.6 3.2 0.00 0.00 0.00 82 1011.8
20260503224454 14 30 3.2 3.2 0.00 0.00 0.00 82 1011.8
20260503224414 14 19 3.2 3.2 0.00 0.00 0.00 82 1011.7
20260503224332 14 9 3.2 3.2 0.00 0.00 0.00 82 1011.7
20260503224049 14 24 3.2 3.2 0.00 0.00 0.00 82 1011.7
20260503224004 14 19 1.6 3.2 0.00 0.00 0.00 82 1011.8
20260503223923 14 22 1.6 3.2 0.00 0.00 0.00 82 1011.7
20260503223738 14 9 1.6 3.2 0.00 0.00 0.00 82 1011.8
20260503223640 14 338 1.6 3.2 0.00 0.00 0.00 82 1011.8
20260503223628 15 84 9.7 19.3 0.00 0.00 0.00 80 1011.3
20260503223533 14 9 1.6 3.2 0.00 0.00 0.00 82 1011.7
20260503223432 14 41 1.6 3.2 0.00 0.00 0.00 82 1011.8
20260503223419 15 104 9.7 16.1 0.00 0.00 0.00 80 1011.2
20260503223329 14 9 0.0 3.2 0.00 0.00 0.00 82 1011.7
20260503223311 15 93 11.3 19.3 0.00 0.00 0.00 80 1011.2
20260503223230 14 325 0.0 3.2 0.00 0.00 0.00 82 1011.8
20260503223148 14 178 0.0 3.2 0.00 0.00 0.00 82 1011.8
20260503223108 14 221 1.6 3.2 0.00 0.00 0.00 82 1011.9
20260503223029 14 221 1.6 3.2 0.00 0.00 0.00 82 1011.9
20260503222806 14 178 1.6 3.2 0.00 0.00 0.00 82 1011.9
20260503222719 14 137 1.6 3.2 0.00 0.00 0.00 82 1011.9
20260503222635 14 137 1.6 3.2 0.00 0.00 0.00 82 1011.9
20260503222415 15 67 1.6 3.2 0.00 0.00 0.00 82 1011.9
20260503222336 15 80 1.6 3.2 0.00 0.00 0.00 82 1011.9
20260503222251 15 67 1.6 3.2 0.00 0.00 0.00 82 1011.8
20260503221920 15 61 1.6 3.2 0.00 0.00 0.00 82 1011.9
20260503221836 15 85 1.6 3.2 0.00 0.00 0.00 82 1011.9
20260503221801 15 93 1.6 3.2 0.00 0.00 0.00 82 1011.8
20260503221717 15 85 1.6 3.2 0.00 0.00 0.00 82 1011.8
20260503221450 15 76 1.6 3.2 0.00 0.00 0.00 82 1011.8
20260503221228 15 38 1.6 3.2 0.00 0.00 0.00 82 1011.9
20260503221143 15 22 1.6 3.2 0.00 0.00 0.00 82 1011.9
20260503220905 15 342 1.6 4.8 0.00 0.00 0.00 81 1011.9
20260503220832 15 9 1.6 4.8 0.00 0.00 0.00 81 1012.0
20260503220751 15 9 1.6 4.8 0.00 0.00 0.00 81 1011.9
20260503220557 15 325 1.6 4.8 0.00 0.00 0.00 81 1011.9
20260503220455 15 309 1.6 4.8 0.00 0.00 0.00 81 1011.9
20260503220427 16 97 9.7 17.7 0.00 0.00 0.00 80 1011.2
20260503220356 15 325 1.6 4.8 0.00 0.00 0.00 81 1011.8
20260503220255 15 309 3.2 4.8 0.00 0.00 0.00 81 1011.9
20260503220241 16 93 9.7 19.3 0.00 0.00 0.00 80 1011.1
20260503220158 15 301 3.2 4.8 0.00 0.00 0.00 81 1011.9
20260503220139 16 93 6.4 19.3 0.00 0.00 0.00 80 1011.2
20260503220106 15 298 3.2 4.8 0.00 0.00 0.00 81 1011.9
20260503215951 15 300 3.2 4.8 0.00 0.00 0.00 81 1011.9
20260503215851 15 284 3.2 4.8 0.00 0.00 0.00 81 1011.9
20260503215808 16 57 11.3 20.9 0.00 0.00 0.00 80 1011.0
20260503215716 16 59 11.3 20.9 0.00 0.00 0.00 80 1011.0
20260503215649 15 295 3.2 3.2 0.00 0.00 0.00 81 1011.9
20260503215546 15 298 1.6 3.2 0.00 0.00 0.00 81 1011.9
20260503215446 15 316 1.6 3.2 0.00 0.00 0.00 81 1011.9
20260503215430 16 97 9.7 25.7 0.00 0.00 0.00 79 1011.0
20260503215346 15 344 1.6 4.8 0.00 0.00 0.00 81 1011.8
20260503215307 15 341 1.6 4.8 0.00 0.00 0.00 81 1011.8
20260503215223 15 341 1.6 4.8 0.00 0.00 0.00 81 1011.8
20260503214940 15 338 1.6 6.4 0.00 0.00 0.00 81 1011.8
20260503214837 15 9 3.2 6.4 0.00 0.00 0.00 81 1011.8
20260503214735 15 17 3.2 6.4 0.00 0.00 0.00 81 1011.8
20260503214636 15 63 1.6 6.4 0.00 0.00 0.00 81 1011.7
20260503214534 15 57 1.6 6.4 0.00 0.00 0.00 81 1011.7
20260503214434 15 63 1.6 6.4 0.00 0.00 0.00 81 1011.6
20260503214408 16 103 9.7 20.9 0.00 0.00 0.00 79 1010.8
20260503214331 15 41 3.2 6.4 0.00 0.00 0.00 81 1011.7
20260503214233 15 150 3.2 6.4 0.00 0.00 0.00 81 1011.6
20260503214149 15 111 3.2 6.4 0.00 0.00 0.00 81 1011.6
20260503214107 15 111 3.2 4.8 0.00 0.00 0.00 81 1011.6
20260503213825 15 19 1.6 3.2 0.00 0.00 0.00 81 1011.7
20260503213750 16 106 6.4 19.3 0.00 0.00 0.00 79 1010.7
20260503213725 15 325 1.6 3.2 0.00 0.00 0.00 81 1011.7
20260503213708 16 100 3.2 19.3 0.00 0.00 0.00 79 1010.8
20260503213624 15 19 1.6 3.2 0.00 0.00 0.00 81 1011.7
20260503213521 15 61 1.6 3.2 0.00 0.00 0.00 80 1011.8
20260503213428 16 88 8.0 19.3 0.00 0.00 0.00 78 1010.6
20260503213421 15 46 3.2 3.2 0.00 0.00 0.00 80 1011.8
20260503213319 15 43 1.6 3.2 0.00 0.00 0.00 80 1011.7
20260503213219 15 19 1.6 3.2 0.00 0.00 0.00 80 1011.8
20260503213117 15 9 1.6 3.2 0.00 0.00 0.00 80 1011.8
20260503213040 15 9 1.6 3.2 0.00 0.00 0.00 80 1011.7
20260503212956 15 63 1.6 3.2 0.00 0.00 0.00 80 1011.8
20260503212734 16 81 12.9 27.4 0.00 0.00 0.00 78 1010.5
20260503212712 15 80 1.6 4.8 0.00 0.00 0.00 80 1011.7
20260503212612 15 80 1.6 4.8 0.00 0.00 0.00 80 1011.7
20260503212512 15 51 1.6 4.8 0.00 0.00 0.00 81 1011.7
20260503212408 15 51 1.6 4.8 0.00 0.00 0.00 81 1011.7
20260503212340 16 90 12.9 27.4 0.00 0.00 0.00 77 1010.6
20260503212307 15 59 0.0 4.8 0.00 0.00 0.00 81 1011.8
20260503212206 15 67 0.0 4.8 0.00 0.00 0.00 81 1011.8
20260503212106 15 61 1.6 4.8 0.00 0.00 0.00 81 1011.8
20260503212008 15 9 3.2 4.8 0.00 0.00 0.00 81 1011.8
20260503211925 15 83 1.6 4.8 0.00 0.00 0.00 81 1011.7
20260503211843 15 34 3.2 4.8 0.00 0.00 0.00 81 1011.7
20260503211604 15 55 3.2 4.8 0.00 0.00 0.00 81 1011.8
20260503211458 15 70 1.6 4.8 0.00 0.00 0.00 81 1011.7
20260503211434 16 92 12.9 20.9 0.00 0.00 0.00 76 1010.3
20260503211409 16 69 12.9 20.9 0.00 0.00 0.00 76 1010.4
20260503211356 15 93 3.2 4.8 0.00 0.00 0.00 81 1011.7
20260503211255 15 111 3.2 6.4 0.00 0.00 0.00 81 1011.7
20260503211237 16 70 12.9 20.9 0.00 0.00 0.00 76 1010.3
20260503211207 15 93 3.2 6.4 0.00 0.00 0.00 81 1011.7
20260503211056 15 103 3.2 6.4 0.00 0.00 0.00 81 1011.7
20260503210951 15 80 1.6 6.4 0.00 0.00 0.00 81 1011.7
20260503210849 15 67 1.6 6.4 0.00 0.00 0.00 81 1011.6
20260503210749 15 61 3.2 6.4 0.00 0.00 0.00 81 1011.7
20260503210734 16 88 14.5 24.1 0.00 0.00 0.00 76 1010.4
20260503210648 15 76 1.6 6.4 0.00 0.00 0.00 81 1011.6
20260503210550 15 85 3.2 6.4 0.00 0.00 0.00 81 1011.6
20260503210507 15 72 3.2 6.4 0.00 0.00 0.00 81 1011.7
20260503210426 15 99 3.2 6.4 0.00 0.00 0.00 81 1011.6
20260503210220 16 111 12.9 25.7 0.00 0.00 0.00 76 1010.3
20260503210143 15 108 3.2 8.0 0.00 0.00 0.00 80 1011.6
20260503210056 15 144 3.2 8.0 0.00 0.00 0.00 80 1011.5
20260503205939 15 93 3.2 11.3 0.00 0.00 0.00 80 1011.6
20260503205833 15 137 3.2 12.9 0.00 0.00 0.00 80 1011.5
20260503205733 15 86 3.2 12.9 0.00 0.00 0.00 80 1011.6
20260503205654 15 101 3.2 14.5 0.00 0.00 0.00 80 1011.5
20260503205607 15 93 3.2 14.5 0.00 0.00 0.00 80 1011.6
20260503205335 15 57 3.2 14.5 0.00 0.00 0.00 80 1011.6
20260503205252 15 108 3.2 14.5 0.00 0.00 0.00 80 1011.6
20260503205212 15 86 4.8 14.5 0.00 0.00 0.00 80 1011.6
20260503204937 15 111 6.4 14.5 0.00 0.00 0.00 80 1011.5
20260503204853 15 93 6.4 19.3 0.00 0.00 0.00 80 1011.6
20260503204614 15 74 6.4 19.3 0.00 0.00 0.00 80 1011.5
20260503204530 15 69 6.4 19.3 0.00 0.00 0.00 80 1011.5
20260503204445 15 59 8.0 19.3 0.00 0.00 0.00 80 1011.5
20260503204405 15 67 6.4 19.3 0.00 0.00 0.00 80 1011.5
20260503204324 15 97 6.4 19.3 0.00 0.00 0.00 80 1011.3
20260503204239 15 140 9.7 19.3 0.00 0.00 0.00 80 1011.3
20260503204011 15 111 8.0 19.3 0.00 0.00 0.00 80 1011.3
20260503203928 15 77 6.4 19.3 0.00 0.00 0.00 80 1011.3
20260503203848 15 63 6.4 19.3 0.00 0.00 0.00 80 1011.5
20260503203802 15 119 8.0 19.3 0.00 0.00 0.00 80 1011.3
20260503203723 15 69 6.4 19.3 0.00 0.00 0.00 80 1011.3
20260503203320 15 57 6.4 19.3 0.00 0.00 0.00 80 1011.3
20260503203052 15 69 12.9 19.3 0.00 0.00 0.00 80 1011.3
20260503202820 15 82 6.4 17.7 0.00 0.00 0.00 80 1011.3
20260503202742 15 88 4.8 16.1 0.00 0.00 0.00 80 1011.2
20260503202653 15 153 6.4 16.1 0.00 0.00 0.00 80 1011.2
20260503202610 15 83 9.7 16.1 0.00 0.00 0.00 80 1011.2
20260503202347 15 88 8.0 16.1 0.00 0.00 0.00 80 1011.2
20260503202307 15 88 9.7 16.1 0.00 0.00 0.00 80 1011.2
20260503202039 15 84 9.7 19.3 0.00 0.00 0.00 80 1011.2
20260503201808 15 78 8.0 19.3 0.00 0.00 0.00 80 1011.2
20260503201728 15 79 6.4 19.3 0.00 0.00 0.00 80 1011.2
20260503201458 16 115 6.4 19.3 0.00 0.00 0.00 80 1011.2
20260503201406 15 88 11.3 19.3 0.00 0.00 0.00 80 1011.2
20260503201325 15 102 12.9 19.3 0.00 0.00 0.00 80 1011.2
20260503201053 16 63 8.0 16.1 0.00 0.00 0.00 80 1011.2
20260503201011 16 93 6.4 16.1 0.00 0.00 0.00 80 1011.2
20260503200926 16 116 6.4 16.1 0.00 0.00 0.00 80 1011.2
20260503200705 16 96 9.7 19.3 0.00 0.00 0.00 80 1011.1
20260503200418 16 69 8.0 19.3 0.00 0.00 0.00 80 1011.1
20260503200337 16 104 8.0 19.3 0.00 0.00 0.00 80 1011.1
20260503200256 16 74 9.7 19.3 0.00 0.00 0.00 80 1011.0
20260503200212 16 111 8.0 20.9 0.00 0.00 0.00 80 1011.0
20260503195926 16 108 12.9 20.9 0.00 0.00 0.00 80 1011.0
20260503195844 16 75 11.3 20.9 0.00 0.00 0.00 80 1011.0
20260503195601 16 78 11.3 20.9 0.00 0.00 0.00 80 1011.0
20260503195500 16 88 12.9 25.7 0.00 0.00 0.00 80 1010.9
20260503195402 16 96 12.9 25.7 0.00 0.00 0.00 80 1010.9
20260503195322 16 117 9.7 25.7 0.00 0.00 0.00 80 1011.0
20260503195240 16 79 8.0 25.7 0.00 0.00 0.00 79 1011.0
20260503194952 16 96 11.3 25.7 0.00 0.00 0.00 79 1011.0
20260503194852 16 93 11.3 25.7 0.00 0.00 0.00 79 1010.9
20260503194808 16 80 12.9 32.2 0.00 0.00 0.00 79 1011.0
20260503194723 16 116 14.5 32.2 0.00 0.00 0.00 79 1011.0
20260503194639 16 69 12.9 32.2 0.00 0.00 0.00 79 1010.9
20260503194551 16 131 11.3 32.2 0.00 0.00 0.00 79 1010.9
20260503194344 16 84 8.0 32.2 0.00 0.00 0.00 79 1010.9
20260503194243 16 81 9.7 32.2 0.00 0.00 0.00 79 1010.9
20260503194215 17 84 9.7 17.7 0.00 0.00 0.00 77 1010.8
20260503194145 16 57 11.3 32.2 0.00 0.00 0.00 79 1010.9
20260503194041 16 111 14.5 32.2 0.00 0.00 0.00 79 1010.9
20260503194023 17 86 11.3 24.1 0.00 0.00 0.00 77 1010.8
20260503193941 16 103 12.9 32.2 0.00 0.00 0.00 79 1010.9
20260503193837 16 116 12.9 32.2 0.00 0.00 0.00 79 1010.9
20260503193809 17 43 11.3 24.1 0.00 0.00 0.00 78 1010.9
20260503193738 16 72 11.3 20.9 0.00 0.00 0.00 79 1010.8
20260503193638 16 102 11.3 20.9 0.00 0.00 0.00 79 1010.8
20260503193535 16 117 12.9 20.9 0.00 0.00 0.00 79 1010.9
20260503193438 16 87 12.9 20.9 0.00 0.00 0.00 79 1010.9
20260503193357 16 80 9.7 20.9 0.00 0.00 0.00 79 1010.8
20260503193314 16 113 8.0 20.9 0.00 0.00 0.00 79 1010.8
20260503193108 16 65 9.7 20.9 0.00 0.00 0.00 79 1011.0
20260503193030 16 93 11.3 20.9 0.00 0.00 0.00 79 1010.8
20260503192927 16 108 12.9 20.9 0.00 0.00 0.00 79 1010.8
20260503192834 16 144 12.9 20.9 0.00 0.00 0.00 79 1010.8
20260503192751 16 88 11.3 20.9 0.00 0.00 0.00 79 1010.8
20260503192709 16 79 8.0 17.7 0.00 0.00 0.00 79 1010.7
20260503192626 16 87 4.8 17.7 0.00 0.00 0.00 79 1010.8
20260503192541 16 83 6.4 19.3 0.00 0.00 0.00 79 1010.7
20260503192136 16 69 11.3 20.9 0.00 0.00 0.00 79 1011.0
20260503192118 16 111 4.8 19.3 0.00 0.00 0.00 79 1010.8
20260503192016 16 97 6.4 19.3 0.00 0.00 0.00 79 1010.7
20260503191915 16 83 6.4 19.3 0.00 0.00 0.00 79 1010.7
20260503191816 16 84 8.0 19.3 0.00 0.00 0.00 79 1010.7
20260503191734 16 74 9.7 19.3 0.00 0.00 0.00 78 1010.7
20260503191652 16 63 8.0 19.3 0.00 0.00 0.00 78 1010.8
20260503191409 16 101 6.4 20.9 0.00 0.00 0.00 78 1010.6
20260503191308 16 79 8.0 22.5 0.00 0.00 0.00 78 1010.6
20260503191207 16 109 9.7 27.4 0.00 0.00 0.00 78 1010.6
20260503191108 16 75 9.7 27.4 0.00 0.00 0.00 78 1010.6
20260503191058 17 57 12.9 24.1 0.00 0.00 0.00 79 1011.1
20260503191023 17 15 12.9 24.1 0.00 0.00 0.00 79 1011.1
20260503191005 16 105 8.0 27.4 0.00 0.00 0.00 78 1010.5
20260503190902 16 48 8.0 27.4 0.00 0.00 0.00 78 1010.5
20260503190803 16 65 9.7 27.4 0.00 0.00 0.00 78 1010.5
20260503190723 16 86 9.7 27.4 0.00 0.00 0.00 78 1010.4
20260503190640 16 106 12.9 27.4 0.00 0.00 0.00 77 1010.5
20260503190403 16 101 12.9 27.4 0.00 0.00 0.00 78 1010.4
20260503190319 16 57 9.7 22.5 0.00 0.00 0.00 78 1010.5
20260503190241 16 88 8.0 22.5 0.00 0.00 0.00 77 1010.6
20260503190143 16 76 11.3 22.5 0.00 0.00 0.00 77 1010.4
20260503185949 16 86 14.5 24.1 0.00 0.00 0.00 77 1010.5
20260503185929 17 85 14.5 27.4 0.00 0.00 0.00 78 1011.1
20260503185854 16 61 12.9 24.1 0.00 0.00 0.00 77 1010.4
20260503185811 16 65 9.7 24.1 0.00 0.00 0.00 77 1010.5
20260503185731 16 88 9.7 24.1 0.00 0.00 0.00 77 1010.5
20260503185449 16 74 11.3 27.4 0.00 0.00 0.00 77 1010.5
20260503185433 17 59 14.5 27.4 0.00 0.00 0.00 78 1011.1
20260503185346 16 74 11.3 27.4 0.00 0.00 0.00 77 1010.4
20260503185245 16 101 16.1 27.4 0.00 0.00 0.00 76 1010.5
20260503185215 17 34 16.1 24.1 0.00 0.00 0.00 77 1011.1
20260503185148 16 80 16.1 27.4 0.00 0.00 0.00 76 1010.5
20260503185043 16 88 16.1 27.4 0.00 0.00 0.00 76 1010.4
20260503185003 17 67 12.9 25.7 0.00 0.00 0.00 77 1011.0
20260503184938 16 77 17.7 27.4 0.00 0.00 0.00 76 1010.4
20260503184916 17 72 12.9 25.7 0.00 0.00 0.00 77 1011.0
20260503184840 16 61 17.7 27.4 0.00 0.00 0.00 76 1010.4
20260503184736 16 71 14.5 27.4 0.00 0.00 0.00 76 1010.4
20260503184656 16 51 11.3 20.9 0.00 0.00 0.00 76 1010.3
20260503184613 16 104 12.9 20.9 0.00 0.00 0.00 76 1010.4
20260503184522 16 53 11.3 20.9 0.00 0.00 0.00 76 1010.4
20260503184444 16 63 11.3 20.9 0.00 0.00 0.00 76 1010.5
20260503184402 16 49 11.3 20.9 0.00 0.00 0.00 76 1010.4
20260503183951 16 50 12.9 20.9 0.00 0.00 0.00 76 1010.3
20260503183911 16 65 12.9 20.9 0.00 0.00 0.00 76 1010.3
20260503183627 16 59 12.9 24.1 0.00 0.00 0.00 76 1010.3
20260503183524 16 106 9.7 24.1 0.00 0.00 0.00 76 1010.3
20260503183426 16 87 11.3 24.1 0.00 0.00 0.00 76 1010.4
20260503183323 16 97 11.3 24.1 0.00 0.00 0.00 76 1010.4
20260503183230 16 86 9.7 24.1 0.00 0.00 0.00 76 1010.4
20260503183214 18 107 14.5 25.7 0.00 0.00 0.00 73 1010.9
20260503183152 18 85 16.1 25.7 0.00 0.00 0.00 73 1010.9
20260503183121 16 117 9.7 24.1 0.00 0.00 0.00 76 1010.4
20260503183057 18 61 14.5 27.4 0.00 0.00 0.00 73 1010.9
20260503183024 16 97 8.0 24.1 0.00 0.00 0.00 76 1010.3
20260503182941 16 87 11.3 24.1 0.00 0.00 0.00 76 1010.4
20260503182859 16 92 16.1 24.1 0.00 0.00 0.00 76 1010.4
20260503182630 16 50 11.3 24.1 0.00 0.00 0.00 76 1010.4
20260503182545 16 69 8.0 24.1 0.00 0.00 0.00 76 1010.4
20260503182501 16 78 9.7 24.1 0.00 0.00 0.00 76 1010.3
20260503182238 16 63 14.5 25.7 0.00 0.00 0.00 76 1010.4
20260503182158 16 96 14.5 25.7 0.00 0.00 0.00 76 1010.3
20260503182006 16 67 14.5 25.7 0.00 0.00 0.00 76 1010.3
20260503181904 17 69 9.7 25.7 0.00 0.00 0.00 76 1010.3
20260503181803 17 63 14.5 25.7 0.00 0.00 0.00 76 1010.4
20260503181721 17 63 14.5 25.7 0.00 0.00 0.00 76 1010.3
20260503181641 17 110 16.1 25.7 0.00 0.00 0.00 76 1010.3
20260503181555 17 74 17.7 25.7 0.00 0.00 0.00 76 1010.3
20260503181510 17 103 16.1 25.7 0.00 0.00 0.00 76 1010.2
20260503181248 17 57 19.3 25.7 0.00 0.00 0.00 75 1010.2
20260503181058 17 67 16.1 27.4 0.00 0.00 0.00 75 1010.2
20260503180955 17 80 14.5 27.4 0.00 0.00 0.00 75 1010.3
20260503180853 17 116 14.5 27.4 0.00 0.00 0.00 75 1010.3
20260503180815 17 74 12.9 27.4 0.00 0.00 0.00 75 1010.3
20260503180733 17 98 9.7 27.4 0.00 0.00 0.00 76 1010.3
20260503180448 17 144 12.9 27.4 0.00 0.00 0.00 76 1010.4
20260503180347 17 84 14.5 27.4 0.00 0.00 0.00 75 1010.3
20260503180250 17 98 16.1 27.4 0.00 0.00 0.00 75 1010.4
20260503180209 17 104 12.9 27.4 0.00 0.00 0.00 76 1010.3
20260503180130 17 34 14.5 24.1 0.00 0.00 0.00 76 1010.4
20260503180028 17 107 14.5 24.1 0.00 0.00 0.00 76 1010.4
20260503175942 17 93 12.9 25.7 0.00 0.00 0.00 76 1010.5
20260503175719 17 128 14.5 27.4 0.00 0.00 0.00 76 1010.6
20260503175511 19 63 12.9 29.0 0.00 0.00 0.00 69 1011.2
20260503175436 17 102 6.4 27.4 0.00 0.00 0.00 76 1010.5
20260503175404 19 67 16.1 29.0 0.00 0.00 0.00 68 1011.2
20260503175332 17 56 9.7 27.4 0.00 0.00 0.00 76 1010.5
20260503175250 17 117 12.9 27.4 0.00 0.00 0.00 75 1010.6
20260503175210 17 131 12.9 27.4 0.00 0.00 0.00 75 1010.6
20260503174929 17 107 17.7 27.4 0.00 0.00 0.00 75 1010.6
20260503174910 19 139 14.5 29.0 0.00 0.00 0.00 67 1011.2
20260503174838 17 63 17.7 27.4 0.00 0.00 0.00 75 1010.6
20260503174753 17 90 16.1 24.1 0.00 0.00 0.00 75 1010.6
20260503174713 17 137 11.3 24.1 0.00 0.00 0.00 76 1010.7
20260503174634 17 112 12.9 19.3 0.00 0.00 0.00 76 1010.6
20260503174406 17 95 12.9 24.1 0.00 0.00 0.00 76 1010.8
20260503174145 17 86 9.7 24.1 0.00 0.00 0.00 77 1010.7
20260503174101 17 90 11.3 24.1 0.00 0.00 0.00 77 1010.8
20260503173815 17 116 9.7 24.1 0.00 0.00 0.00 77 1010.8
20260503173752 19 113 12.9 27.4 0.00 0.00 0.00 68 1011.3
20260503173718 17 40 9.7 24.1 0.00 0.00 0.00 77 1010.7
20260503173637 17 72 12.9 24.1 0.00 0.00 0.00 76 1010.8
20260503173553 17 61 11.3 24.1 0.00 0.00 0.00 77 1010.7
20260503173358 19 123 12.9 27.4 0.00 0.00 0.00 68 1011.2
20260503173309 17 59 8.0 20.9 0.00 0.00 0.00 77 1010.6
20260503173209 17 71 6.4 20.9 0.00 0.00 0.00 77 1010.7
20260503173108 17 107 6.4 20.9 0.00 0.00 0.00 77 1010.7
20260503173024 19 99 14.5 32.2 0.00 0.00 0.00 67 1011.3
20260503173001 17 49 6.4 20.9 0.00 0.00 0.00 77 1010.7
20260503172936 19 82 17.7 32.2 0.00 0.00 0.00 66 1011.5
20260503172900 17 65 11.3 20.9 0.00 0.00 0.00 77 1010.6
20260503172831 19 115 19.3 35.4 0.00 0.00 0.00 66 1011.3
20260503172800 17 42 12.9 20.9 0.00 0.00 0.00 77 1010.7
20260503172659 17 75 11.3 27.4 0.00 0.00 0.00 77 1010.8
20260503172614 20 75 16.1 35.4 0.00 0.00 0.00 66 1011.3
20260503172559 17 74 9.7 27.4 0.00 0.00 0.00 77 1010.6
20260503172456 17 53 8.0 27.4 0.00 0.00 0.00 77 1010.8
20260503172402 17 77 6.4 27.4 0.00 0.00 0.00 78 1010.7
20260503172321 17 85 4.8 27.4 0.00 0.00 0.00 77 1010.7
20260503172239 17 74 6.4 27.4 0.00 0.00 0.00 77 1010.8
20260503172200 17 61 9.7 27.4 0.00 0.00 0.00 76 1010.7
20260503171933 17 80 14.5 27.4 0.00 0.00 0.00 76 1010.7
20260503171851 17 67 9.7 27.4 0.00 0.00 0.00 77 1010.8
20260503171705 17 78 8.0 17.7 0.00 0.00 0.00 77 1010.7
20260503171623 17 65 8.0 17.7 0.00 0.00 0.00 78 1010.7
20260503171535 17 67 8.0 17.7 0.00 0.00 0.00 77 1010.8
20260503171312 17 77 11.3 17.7 0.00 0.00 0.00 77 1010.8
20260503171233 17 72 12.9 17.7 0.00 0.00 0.00 77 1010.8
20260503170939 17 75 8.0 24.1 0.00 0.00 0.00 78 1010.8
20260503170924 20 82 19.3 29.0 0.00 0.00 0.00 65 1011.6
20260503170849 17 67 8.0 24.1 0.00 0.00 0.00 78 1010.8
20260503170808 17 48 9.7 24.1 0.00 0.00 0.00 78 1010.9
20260503170729 17 71 9.7 24.1 0.00 0.00 0.00 78 1010.8
20260503170432 17 78 9.7 24.1 0.00 0.00 0.00 78 1010.8
20260503170403 20 56 9.7 29.0 0.00 0.00 0.00 68 1011.5
20260503170333 17 100 12.9 24.1 0.00 0.00 0.00 78 1010.8
20260503170321 20 101 9.7 29.0 0.00 0.00 0.00 68 1011.6
20260503170231 17 82 12.9 24.1 0.00 0.00 0.00 78 1010.8
20260503170142 17 61 9.7 24.1 0.00 0.00 0.00 79 1010.8
20260503160129 22 77 20.9 30.6 0.00 0.00 0.00 60 1012.2
20260503160116 18 55 16.1 25.7 0.00 0.00 0.00 75 1010.9
20260503150950 19 90 20.9 29.0 0.00 0.00 0.00 67 1011.2
20260503150715 19 93 14.5 27.4 0.00 0.00 0.00 67 1011.2
20260503150633 19 111 14.5 27.4 0.00 0.00 0.00 68 1011.2
20260503150201 19 107 12.9 27.4 0.00 0.00 0.00 68 1011.3
20260503150144 21 56 16.1 30.6 0.00 0.00 0.00 67 1012.6
20260503150117 19 83 14.5 27.4 0.00 0.00 0.00 67 1011.2
20260503140240 20 90 9.7 22.5 0.00 0.00 0.00 64 1011.6
20260503140158 20 126 9.7 22.5 0.00 0.00 0.00 64 1011.7
20260503140119 20 81 11.3 22.5 0.00 0.00 0.00 64 1011.7